Voltar ao catálogo

STARLINK-5663

AtivoComunicaçõesVLEO
NORAD 55347·PAYLOAD·🇺🇸 United States

Lançado Jan 26, 2023 de Cape Canaveral Space Force Station

Loading…

Próximas Passagens (próximas 24 horas)

TLE

AtualizadoSource: CelesTrak SupGP

Época: Sep 14, 2026, 21:06 UTC

1 55347C 23013S   26257.87965278 -.00054455  00000+0 -19723-2 0  2572
2 55347  43.0037 314.6253 0002260 276.2000   6.7477 15.27605188    19

Acompanhe STARLINK-5663 em tempo real com AllMySat

Download on the App Store